[TLELIST] Archives

 

[list_settings.list_name] Current TLEs

July 16th 2021 PST

HST 1 20580U 90037B 21196.20511215 .00000414 00000-0 14050-4 0 9993 2 20580 28.4691 241.4525 0002715 7.6837 25.5770 15.09681390515218 ISS (ZARYA) 1 25544U 98067A 21197.40752575 .00002080 00000-0 46171-4 0 9998 2 25544 51.6421 198.2252 0001949 161.2303 359.1523 15.48808816293123 CXO 1 25867U 99040B 21197.20079981 .00000483 00000-0 00000-0 0 9991 2 25867 54.3927 254.0589 8369175 226.6760 0.1801 0.37813729 10541 ____________________________________________________________________ These 2-Line ...Continue Reading

[list_settings.list_name] Current TLEs

July 15th 2021 PST

HST 1 20580U 90037B 21195.56565297 .00000402 00000-0 13323-4 0 9999 2 20580 28.4692 245.6839 0002695 0.9217 150.0822 15.09681029515118 ISS (ZARYA) 1 25544U 98067A 21196.43734103 .00001441 00000-0 34513-4 0 9994 2 25544 51.6417 203.0226 0001961 158.1796 349.1646 15.48801353292975 CXO 1 25867U 99040B 21197.20079981 .00000483 00000-0 00000-0 0 9991 2 25867 54.3927 254.0589 8369175 226.6760 0.1801 0.37813729 10541 ____________________________________________________________________ These 2-Line ...Continue Reading

[list_settings.list_name] Current TLEs

July 14th 2021 PST

HST 1 20580U 90037B 21194.56752312 .00000442 00000-0 15758-4 0 9992 2 20580 28.4694 252.2885 0002649 350.1046 125.4578 15.09680771515201 ISS (ZARYA) 1 25544U 98067A 21195.35017361 .00000938 00000-0 25321-4 0 9991 2 25544 51.6419 208.3999 0001994 159.0726 42.5696 15.48795082292803 CXO 1 25867U 99040B 21197.20079981 .00000483 00000-0 00000-0 0 9991 2 25867 54.3927 254.0589 8369175 226.6760 0.1801 0.37813729 10541 ____________________________________________________________________ These 2-Line ...Continue Reading

[list_settings.list_name] Current TLEs

July 13th 2021 PST

HST 1 20580U 90037B 21193.57523968 .00000482 00000-0 18170-4 0 9990 2 20580 28.4695 258.8545 0002603 339.2453 132.7137 15.09680401514815 ISS (ZARYA) 1 25544U 98067A 21194.36935123 .00001068 00000-0 27703-4 0 9997 2 25544 51.6420 213.2504 0002073 155.1209 334.1836 15.48792834292655 CXO 1 25867U 99040B 21197.20066023 .00000483 00000-0 00000+0 0 9993 2 25867 54.3929 254.0589 8369150 226.6759 0.1613 0.37814417 21687 ____________________________________________________________________ These 2-Line ...Continue Reading

[list_settings.list_name] Current TLEs

July 12th 2021 PST

HST 1 20580U 90037B 21192.65295079 .00000499 00000-0 19213-4 0 9994 2 20580 28.4696 264.9572 0002568 329.0107 160.5105 15.09679878514671 ISS (ZARYA) 1 25544U 98067A 21193.40195846 .00001502 00000-0 35645-4 0 9998 2 25544 51.6430 218.0339 0002047 154.2065 337.6995 15.48791682292504 CXO 1 25867U 99040B 21194.55554561 .00000538 00000-0 00000-0 0 9999 2 25867 54.4884 254.2154 8366840 226.6199 0.1510 0.37809836 10547 ____________________________________________________________________ These 2-Line ...Continue Reading

[list_settings.list_name] Current TLEs

July 11th 2021 PST

HST 1 20580U 90037B 21191.93192222 .00000518 00000-0 20327-4 0 9990 2 20580 28.4697 269.7282 0002547 320.8767 202.1962 15.09679481514563 ISS (ZARYA) 1 25544U 98067A 21192.41274810 .00001812 00000-0 41306-4 0 9992 2 25544 51.6431 222.9262 0002037 152.4720 220.3125 15.48788953292354 CXO 1 25867U 99040B 21194.55511614 .00000538 00000-0 00000+0 0 9990 2 25867 54.4884 254.2154 8366841 226.6199 0.0925 0.37809768 21677 ____________________________________________________________________ These 2-Line ...Continue Reading

[list_settings.list_name] Current TLEs

July 10th 2021 PST

HST 1 20580U 90037B 21190.94032112 .00000534 00000-0 21297-4 0 9996 2 20580 28.4699 276.2897 0002519 309.6341 213.5557 15.09678789514669 ISS (ZARYA) 1 25544U 98067A 21191.41275463 .00001853 00000-0 42068-4 0 9997 2 25544 51.6431 227.8715 0002029 149.0292 44.4819 15.48784821292195 CXO 1 25867U 99040B 21191.91017494 .00000476 00000-0 00000-0 0 9996 2 25867 54.5545 254.3352 8363240 226.5804 0.1053 0.37804966 10536 ____________________________________________________________________ These 2-Line ...Continue Reading

[list_settings.list_name] Current TLEs

July 9th 2021 PST

HST 1 20580U 90037B 21189.67577147 .00000578 00000-0 23969-4 0 9992 2 20580 28.4700 284.6572 0002483 295.0098 181.9266 15.09678006514221 ISS (ZARYA) 1 25544U 98067A 21190.23720981 .00001003 00000-0 26543-4 0 9993 2 25544 51.6434 233.6881 0002181 142.5095 332.2890 15.48779351292015 CXO 1 25867U 99040B 21191.91017494 .00000476 00000-0 00000-0 0 9996 2 25867 54.5545 254.3352 8363240 226.5804 0.1053 0.37804966 10536 ____________________________________________________________________ These 2-Line ...Continue Reading

[list_settings.list_name] Current TLEs

July 8th 2021 PST

HST 1 20580U 90037B 21188.75318098 .00000571 00000-0 23533-4 0 9998 2 20580 28.4702 290.7618 0002469 284.1689 208.6951 15.09677176514080 ISS (ZARYA) 1 25544U 98067A 21189.39410586 -.00000461 00000-0 -25031-6 0 9997 2 25544 51.6439 237.8582 0001934 140.4626 310.4147 15.48770635291889 CXO 1 25867U 99040B 21189.26506779 .00000367 00000-0 00000-0 0 9999 2 25867 54.6122 254.4422 8359526 226.5475 0.0721 0.37803988 10515 ____________________________________________________________________ These 2-Line ...Continue Reading

[list_settings.list_name] Current TLEs

July 7th 2021 PST

HST 1 20580U 90037B 21187.48951663 .00000603 00000-0 25516-4 0 9997 2 20580 28.4703 299.1231 0002466 269.1822 182.2572 15.09676199513892 ISS (ZARYA) 1 25544U 98067A 21188.49882906 .00000183 00000-0 11533-4 0 9995 2 25544 51.6435 242.2792 0001983 141.7017 354.1996 15.48768048291747 CXO 1 25867U 99040B 21189.26506779 .00000367 00000-0 00000-0 0 9999 2 25867 54.6122 254.4422 8359526 226.5475 0.0721 0.37803988 10515 ____________________________________________________________________ These 2-Line ...Continue Reading
  • This mailing list is a public mailing list - anyone may join or leave, at any time.
  • This mailing list is announce-only.

International Space Station (ISS) / Hubble Space Telescope (HST) / Chandra X-Ray Observatory Orbital Data via EMAIL

Privacy Policy:

Private list